Tracking 25612 objects as of 20-May-2022
HD Live streaming from Space Station
objects crossing your sky now

ONEWEB-0323

Track ONEWEB-0323 now!
10-day predictions
ONEWEB-0323 is classified as:


NORAD ID: 49106
Int'l Code: 2021-075AH
Perigee: 1,219.2 km
Apogee: 1,222.4 km
Inclination: 87.9 °
Period: 109.7 minutes
Semi major axis: 7591 km
RCS: Unknown
Launch date: August 21, 2021
Source: United Kingdom (UK)
Launch site: TYURATAM MISSILE AND SPACE COMPLEX (TTMTR)
aabbcc
Your satellite tracking list
Your tracking list is empty




NASA's NSSDC Master Catalog

Two Line Element Set (TLE):
1 49106U 21075AH  22140.58334491 -.00036743  00000-0 -10255+0 0  9998
2 49106  87.8878 286.4999 0002125 109.0225 237.5618 13.12460727  1303
Source of the keplerian elements: AFSPC